This is the latest recevied weather packets stored in our database for station/object HS6PNA-1. If no packets are shown the sender has not sent any weather packets the latest 10 day(s).
| Time | Temp. | Humidity | Pressure | Rain* | Wind** | Luminosity | Snow |
|---|---|---|---|---|---|---|---|
| 1777968283 | 37.22° C | 49% | 1003 hPa | - | - | 217 W/m² | - |
| 1777967358 | 37.22° C | 48% | 1003 hPa | - | - | 264 W/m² | - |
| 1777966434 | 37.78° C | 47% | 1003 hPa | - | - | 385 W/m² | - |
| 1777965509 | 37.22° C | 47% | 1003 hPa | - | - | 431 W/m² | - |
| 1777964585 | 37.22° C | 48% | 1004 hPa | - | - | 431 W/m² | - |
| 1777963660 | 36.67° C | 49% | 1004 hPa | - | - | 431 W/m² | - |
| 1777962735 | 36.11° C | 50% | 1005 hPa | - | - | 431 W/m² | - |
| 1777961811 | 36.67° C | 51% | 1005 hPa | - | - | 393 W/m² | - |
| 1777960886 | 36.11° C | 51% | 1005 hPa | - | - | 293 W/m² | - |
| 1777959962 | 36.11° C | 54% | 1006 hPa | - | - | 355 W/m² | - |
| 1777959037 | 35.56° C | 54% | 1006 hPa | - | - | 431 W/m² | - |
| 1777958113 | 35° C | 55% | 1006 hPa | - | - | 365 W/m² | - |
| 1777957188 | 34.44° C | 58% | 1007 hPa | - | - | 398 W/m² | - |
| 1777956264 | 33.89° C | 60% | 1007 hPa | - | - | 246 W/m² | - |
| 1777955339 | 33.89° C | 60% | 1007 hPa | - | - | 210 W/m² | - |
| 1777954415 | 33.89° C | 59% | 1007 hPa | - | - | 236 W/m² | - |
| 1777953490 | 33.33° C | 60% | 1007 hPa | - | - | 211 W/m² | - |
| 1777952566 | 32.78° C | 63% | 1007 hPa | - | - | 212 W/m² | - |
| 1777951641 | 32.78° C | 64% | 1007 hPa | - | - | 151 W/m² | - |
| 1777950717 | 32.78° C | 63% | 1007 hPa | - | - | 141 W/m² | - |
| 1777949792 | 32.78° C | 64% | 1007 hPa | - | - | 194 W/m² | - |
| 1777948868 | 32.78° C | 66% | 1007 hPa | - | - | 227 W/m² | - |
| 1777947943 | 32.22° C | 68% | 1007 hPa | - | - | 161 W/m² | - |
| 1777947019 | 31.67° C | 69% | 1007 hPa | - | - | 159 W/m² | - |
| 1777946094 | 31.11° C | 74% | 1008 hPa | - | - | 86 W/m² | - |
* Rain since midnight (hover to see other rain measurements)
** Current wind speed in m/s (hover to see current wind gust speed)